SCP
0 0 0 0 0 0 0 0 0 0 0 0 0 0 0 0 0 0 0 0 -0 -0 -0 -0 -0 0 0 0 0 0 0 0 0 0 0 0 0 0 0 0 0 0 0
0 0 0 0 0 0 0 0 0 0 0 0 0 0 0 0 0 0 0 0 0 -0 -0 -0 0 0 0 0 0 0 0 0 0 0 0 0 0 0 0 0 0 0 0
0 0 0 0 0 0 0 0 0 0 0 0 0 0 0 0 0 0 0 0 0 0 -0 0 0 0 0 0 0 0 0 0 0 0 0 0 0 0 0 0 0 0 0
0 0 0 0 0 0 0 0 0 0 0 0 0 0 0 0 0 0 0 0 0 0 0 0 0 0 0 0 0 0 0 0 0 0 0 0 0 0 0 0 0 0 0
0 0 0 0 0 0 0 0 0 0 0 0 0 0 0 0 0 0 0 0 0 0 0 0 0 0 0 0 0 0 0 0 0 0 0 0 0 0 0 0 0 0 0
0 0 0 0 0 0 0 0 0 0 0 0 0 0 0 0 0 0 0 0 0 0 0 0 0 0 0 0 0 0 0 0 0 0 0 0 0 0 0 0 0 0 0
0 0 0 0 0 0 0 0 0 0 0 0 0 0 0 0 0 0 0 0 0 0 0 0 0 0 0 0 0 0 0 0 0 0 0 0 0 0 0 0 0 0 0
0 0 0 0 0 0 0 0 0 0 0 0 0 0 0 0 0 0 0 0 0 0 0 0 0 0 0 0 0 0 0 0 0 0 0 0 0 0 0 0 0 0 0
0 0 0 0 0 0 0 0 0 0 0 0 0 0 0 0 0 0 0 0 0 0 0 0 0 0 0 0 0 0 0 0 0 0 0 0 0 0 0 0 0 0 0
0 0 0 0 0 0 0 0 0 0 0 0 0 0 0 0 0 0 0 0 0 0 0 0 0 0 0 0 0 0 0 0 0 0 0 0 0 0 0 0 0 0 0
0 0 0 0 0 0 0 0 0 0 0 0 0 0 0 0 0 0 0 0 0 0 0 0 0 0 0 0 0 0 0 0 0 0 0 0 0 0 0 0 0 0 0
0 0 0 0 0 0 0 0 0 0 0 0 0 0 0 0 0 0 0 0 0 0 0 0 0 0 0 0 0 0 0 0 0 0 0 0 0 0 0 0 0 0 0
0 0 0 0 0 0 0 0 0 0 0 0 0 0 0 0 0 0 0 0 0 0 0 0 0 0 0 0 0 0 0 0 0 0 0 0 0 0 0 0 0 0 0
0 0 0 0 0 0 0 0 0 0 0 0 0 0 0 0 0 0 0 0 0 0 0 0 0 0 0 0 0 0 0 0 0 0 0 0 0 0 0 0 0 0 0
0 0 0 0 0 0 0 0 0 0 0 0 0 0 0 0 0 0 0 0 0 0 0 0 0 0 0 0 0 0 0 0 0 0 0 0 0 0 0 0 0 0 0
0 0 0 0 0 0 0 0 0 0 0 0 0 0 0 0 0 0 0 0 0 0 0 0 0 0 0 0 0 0 0 0 0 0 0 0 0 0 0 0 0 0 0
0 0 0 0 0 0 0 0 0 0 0 0 0 0 0 0 0 0 0 0 0 0 0 0 0 0 0 0 0 0 0 0 0 0 0 0 0 0 0 0 0 0 0
0 0 0 0 0 0 0 0 0 0 0 0 0 0 0 0 0 0 0 0 0 0 0 0 0 0 0 0 0 0 0 0 0 0 0 0 0 0 0 0 0 0 0
0 0 0 0 0 0 0 0 0 0 0 0 0 0 0 0 0 0 0 0 0 0 0 0 0 0 0 0 0 0 0 0 0 0 0 0 0 0 0 0 0 0 0
0 0 0 0 0 0 0 0 0 0 0 0 0 0 0 0 0 0 0 0 0 0 0 0 0 0 0 0 0 0 0 0 0 0 0 0 0 0 0 0 0 0 0
0 0 0 0 0 0 0 0 0 0 0 0 0 0 0 0 0 0 0 0 0 0 0 0 0 0 0 0 0 0 0 0 0 0 0 0 0 0 0 0 0 0 0
0 0 0 0 0 0 0 0 0 0 0 0 0 0 0 0 0 0 0 0 0 0 0 0 0 0 0 0 0 0 0 0 0 0 0 0 0 0 0 0 0 0 0
0 0 0 0 0 0 0 0 0 0 0 0 0 0 0 0 0 0 0 0 0 0 0 0 0 0 0 0 0 0 0 0 0 0 0 0 0 0 0 0 0 0 0
0 0 0 0 0 0 0 0 0 0 0 0 0 0 0 0 0 0 0 0 0 0 0 0 0 0 0 0 0 0 0 0 0 0 0 0 0 0 0 0 0 0 0
0 0 0 0 0 0 0 0 0 0 0 0 0 0 0 0 0 0 0 0 0 0 0 0 0 0 0 0 0 0 0 0 0 0 0 0 0 0 0 0 0 0 0
0 0 0 0 0 0 0 0 0 0 0 0 0 0 0 0 0 0 0 0 0 0 0 0 0 0 0 0 0 0 0 0 0 0 0 0 0 0 0 0 0 0 0
Wind_Speed
8 7 7 7 7 6 6 7 6 6 4 3 3 2 2 2 2 2 3 2 2 2 2 1 2 1 2 2 2 3 4 2 2 2 2 3 4 3 3 3 3 4 5
9 8 8 8 8 8 7 7 7 6 5 3 3 2 2 2 2 2 2 2 2 2 2 2 2 2 2 2 2 2 1 2 0 1 1 2 3 2 3 3 3 3 3
10 10 9 9 9 8 8 6 7 7 6 6 4 4 3 3 3 3 2 2 2 2 2 2 2 2 2 2 2 2 2 1 1 2 2 1 1 2 2 3 3 3 3
9 9 9 9 9 8 8 8 8 7 7 7 6 6 4 3 3 2 3 3 3 2 2 2 2 2 2 2 2 2 1 1 1 1 1 3 2 1 1 2 2 3 3
10 10 10 9 8 8 7 7 8 7 7 6 6 6 4 3 3 3 4 3 3 3 3 2 1 2 2 2 2 1 0 0 1 0 1 1 0 1 1 1 1 2 2
10 10 9 9 8 7 7 7 8 7 7 6 7 6 6 5 5 4 4 3 3 2 3 2 2 2 2 2 2 1 1 1 1 1 0 1 1 1 1 1 1 1 2
10 10 10 9 8 9 8 8 9 8 8 7 7 6 6 6 5 4 4 3 3 2 3 2 2 2 2 2 2 1 1 1 1 1 1 1 1 2 2 1 1 1 1
10 10 10 9 9 9 9 9 9 9 8 8 7 6 6 4 3 4 3 3 2 2 3 2 2 2 2 2 2 1 1 1 1 2 2 1 1 2 1 2 2 1 1
10 10 9 10 9 10 10 10 10 9 9 8 7 6 6 5 5 4 4 3 3 2 3 3 3 3 2 2 2 2 2 1 2 2 2 1 2 1 2 1 2 2 2
9 10 9 9 9 9 9 9 10 10 9 8 7 5 5 5 4 4 5 4 4 3 3 4 3 3 3 3 2 2 2 2 2 1 2 2 2 2 2 2 2 2 2
9 9 9 9 9 9 9 9 9 9 9 9 8 7 6 6 5 4 4 4 4 4 4 4 3 3 3 3 3 3 3 2 3 2 2 2 2 1 1 1 2 2 2
8 9 9 9 9 9 9 9 10 9 9 8 8 8 7 6 6 5 5 5 5 4 4 4 4 3 3 3 3 3 3 3 2 2 2 2 2 2 2 2 2 2 2
8 8 9 9 9 9 9 9 9 9 8 8 8 8 8 7 6 5 5 5 5 5 5 4 4 4 4 3 3 3 3 3 2 2 2 2 2 2 2 1 2 2 2
7 8 8 8 8 9 9 9 9 9 9 9 8 8 8 7 6 5 5 5 5 5 5 5 4 4 4 4 4 4 3 3 3 2 2 2 2 2 2 2 2 2 1
7 8 8 8 9 9 9 9 9 9 9 9 9 8 7 7 6 6 5 5 5 5 5 5 4 4 3 2 3 4 3 3 3 3 3 4 5 7 5 3 3 2 1
7 7 8 8 9 9 9 9 9 9 9 9 9 7 7 7 6 6 6 6 5 5 5 5 4 4 3 4 2 1 3 3 3 2 3 4 4 5 4 5 6 6 3
6 7 7 7 8 8 9 10 10 9 9 9 9 8 8 8 7 7 6 6 6 5 5 5 4 4 5 6 4 1 2 2 2 1 2 2 2 1 3 5 5 4 3
6 6 6 6 6 7 8 9 9 9 9 9 9 8 8 8 7 7 7 6 6 5 5 5 5 4 5 6 5 3 3 3 3 2 1 2 2 2 1 1 2 3 3
5 6 6 6 6 7 8 9 9 9 9 9 8 9 8 8 8 8 7 6 6 5 5 5 5 5 5 6 5 4 3 3 3 2 2 1 2 4 2 0 1 1 2
4 4 5 5 6 7 9 10 9 9 9 8 8 8 8 8 8 8 7 6 6 5 5 4 4 4 4 6 5 5 3 3 3 3 3 3 2 3 2 1 0 1 1
4 5 5 5 5 7 9 9 9 9 8 7 7 7 7 7 7 7 6 6 6 6 5 5 4 3 3 6 5 4 3 3 2 2 2 3 4 2 1 2 2 3 3
5 5 5 4 5 7 8 9 8 8 7 7 7 7 7 7 6 7 7 7 7 6 6 5 4 3 3 3 4 4 2 1 2 1 2 4 5 3 1 0 2 2 3
5 5 5 5 5 6 7 8 7 7 7 8 8 7 7 7 7 7 7 7 6 5 5 4 4 4 3 4 5 5 3 1 1 1 4 4 4 3 2 1 1 1 2
5 5 5 5 6 6 6 6 7 7 8 8 8 7 8 7 7 5 6 6 6 5 5 5 4 4 4 4 4 5 5 5 4 2 5 5 4 2 1 2 2 2 1
5 5 5 5 6 6 5 5 6 8 8 8 8 7 7 7 6 5 3 4 4 3 4 5 5 5 4 3 3 3 3 3 3 3 2 2 2 2 1 1 1 1 1
5 5 5 5 5 6 6 6 6 8 8 8 7 6 6 6 5 6 5 4 3 5 4 2 2 3 4 6 6 4 4 4 4 3 2 2 2 1 1 1 1 1 2
Wind_Direction
180 176 178 175 180 177 173 166 166 159 153 149 154 136 125 122 112 106 109 113 107 100 101 120 107 107 107 120 126 118 123 120 114 117 115 102 80 67 61 48 42 41 39
181 176 183 182 186 183 181 178 174 170 166 160 152 140 131 120 102 105 105 106 106 108 113 118 124 128 116 120 115 133 125 105 80 295 193 149 130 90 61 61 44 32 43
189 182 186 187 186 186 185 185 181 175 172 167 157 147 140 149 143 140 123 102 99 105 105 95 118 122 132 119 130 146 154 124 77 359 334 339 61 99 85 55 49 33 23
193 188 188 191 190 188 189 188 184 180 172 170 174 174 177 163 145 139 133 131 119 112 109 105 116 127 118 132 153 140 136 155 144 98 2 3 20 324 116 105 64 44 32
192 189 191 194 191 186 188 190 185 179 173 177 173 183 178 161 143 142 139 141 122 117 121 113 116 117 121 123 118 126 177 219 297 349 70 58 25 292 335 50 62 72 52
190 189 187 187 182 176 180 185 185 175 172 175 176 182 167 163 157 159 147 149 133 127 124 126 127 122 117 116 113 123 118 26 8 331 9 339 337 345 358 1 68 61 60
190 189 185 183 179 175 178 181 180 174 174 178 178 176 170 172 170 167 161 164 145 139 130 134 135 116 105 106 115 121 103 110 68 4 21 11 7 352 342 337 2 42 86
189 189 188 185 181 179 179 180 179 176 175 181 177 172 166 173 168 178 171 169 154 138 131 137 127 116 113 117 110 113 107 107 96 69 50 26 22 3 347 342 325 308 143
186 188 188 186 182 180 181 182 180 177 176 177 173 174 171 170 168 174 174 162 155 146 145 143 133 123 119 113 119 108 108 88 68 69 70 45 45 2 356 349 328 318 319
186 189 188 187 183 181 181 182 182 179 174 174 172 170 173 170 172 174 169 164 160 152 153 146 140 134 129 125 116 108 91 107 89 56 53 45 39 28 11 354 343 328 324
184 188 187 186 182 179 178 180 181 179 176 177 174 172 171 173 172 175 170 167 159 158 158 149 144 137 136 134 130 125 124 126 120 114 90 78 46 42 36 16 0 357 347
179 180 181 179 178 178 177 180 181 178 176 175 175 175 172 174 176 173 172 170 163 163 163 152 144 135 135 139 135 128 128 122 114 108 91 81 81 48 23 11 12 14 355
173 174 175 180 178 177 178 181 181 176 171 172 174 175 176 176 175 173 167 169 166 163 165 156 149 146 143 140 135 129 126 119 109 93 83 68 74 77 60 26 24 19 24
172 173 176 179 178 177 179 180 179 174 171 173 176 177 175 173 172 164 163 167 165 165 163 154 151 147 148 146 141 134 127 117 103 87 77 62 59 47 48 43 29 19 27
180 178 179 178 179 180 180 177 177 175 174 175 179 178 174 170 166 159 162 162 160 163 157 149 145 137 140 133 140 139 133 126 112 101 89 69 56 38 26 21 19 18 17
187 184 186 181 183 185 181 177 178 178 176 179 179 172 171 169 168 165 164 161 161 159 153 150 143 138 127 103 92 164 143 136 127 118 110 113 116 103 84 57 39 19 8
192 192 192 189 189 190 183 179 178 174 178 178 173 171 172 170 172 167 164 164 163 159 157 154 149 145 126 129 137 167 165 136 118 118 118 101 92 161 126 126 136 87 42
194 197 197 192 191 187 182 177 173 174 177 176 173 173 174 170 168 167 168 170 164 158 162 158 155 142 133 140 148 169 181 138 128 130 125 130 119 65 18 93 83 65 61
188 189 192 190 185 181 178 174 174 174 175 175 177 174 175 171 169 169 171 170 164 160 166 163 160 157 148 150 161 188 156 150 140 124 93 84 101 74 341 300 94 88 89
170 172 178 178 175 177 175 174 174 174 177 178 180 176 174 173 173 172 168 163 164 163 161 157 165 165 154 143 167 206 180 169 153 139 124 78 61 85 327 291 16 12 35
153 156 162 169 174 174 173 176 176 178 177 174 174 171 171 174 170 165 162 162 161 160 162 159 161 162 150 144 163 207 210 180 171 162 144 109 113 103 23 325 3 22 338
153 157 158 161 169 173 174 179 182 178 168 164 167 170 170 167 162 158 161 164 161 161 165 166 160 159 149 140 153 170 217 261 184 170 141 115 125 123 102 10 54 28 298
158 159 158 154 162 172 177 181 176 167 163 163 165 167 167 164 163 162 163 164 165 169 171 172 169 161 151 139 143 155 154 156 170 92 76 98 136 158 162 144 151 241 267
163 162 159 159 164 171 180 179 167 165 165 165 166 167 165 160 161 163 168 168 172 176 177 176 176 168 164 164 159 160 155 152 162 159 130 139 154 187 160 158 191 236 287
161 164 168 168 168 168 170 169 167 167 169 166 166 165 161 155 154 151 152 171 168 178 179 178 177 173 172 145 126 165 168 169 163 165 173 177 173 181 186 205 222 246 250
159 163 166 168 165 162 165 165 168 172 171 166 165 162 157 153 152 147 129 74 92 106 115 110 148 140 124 126 134 131 126 129 153 175 181 188 197 217 234 250 252 254 271